Regional Weather Roundup
Issued by NWS Kansas City/Pleasant Hill, MO

Home | Current Version | Previous Version | Graphics & Text | Print | Product List | Glossary Off
Versions: 1 2 3 4 5 6 7 8 9 10 11 12 13 14 15 16 17 18 19 20 21 22 23 24 25 26 27 28

000
ASUS43 KEAX 240110
RWREAX

WEATHER ROUNDUP FOR EASTERN KANSAS AND NORTHWEST MISSOURI
NATIONAL WEATHER SERVICE KANSAS CITY/PLEASANT HILL MO
800 PM CDT TUE AUG 23 2016

KSZ040-057-103>105-MOZ028-029-037-043-240200-
...KANSAS CITY METROPOLITAN AREA...

CITY           SKY/WX    TMP DP  RH WIND       PRES   REMARKS
K.C. INTL      MOCLDY    81  70  69 S15       29.94R
K.C. DOWNTOWN  CLOUDY    84  71  65 S20G25    29.94R
LEES SUMMIT    MOCLDY    82  72  71 S12       29.98R
OLATHE - IXD   CLOUDY    81  72  74 S10       29.97R
OLATHE - OJC   CLOUDY    80  71  74 S10       29.97R
LAWRENCE       CLOUDY    82  72  71 S12       29.93R

$$

MOZ001>008-011>017-020>025-030>033-038>040-044>046-053-054-240200-
...NORTHERN AND CENTRAL MISSOURI...

CITY           SKY/WX    TMP DP  RH WIND       PRES   REMARKS
ST. JOSEPH     MOCLDY    82  72  71 S13       29.91S
MOSBY          MOCLDY    81  72  74 S10       29.95R
WHITEMAN AFB   PTCLDY    79  79 100 S9        29.98S
CLINTON        CLEAR     79  73  83 S10       30.00S
SEDALIA        CLEAR     79  74  84 S9        30.02S
WARSAW         NOT AVBL
CHILLICOTHE      N/A     81  74  79 S8        29.96S
KIRKSVILLE     CLOUDY    74  71  91 SE10      30.00F

$$

MOZ041-047>049-056>058-063>065-088>090-097-240200-
...EASTERN AND SOUTHERN MISSOURI...

CITY           SKY/WX    TMP DP  RH WIND       PRES   REMARKS
ST. LOUIS INTL CLOUDY    77  69  76 E10       30.08F
SPIRIT OF STL  CLOUDY    75  72  90 E5        30.06F
COLUMBIA       CLOUDY    75  73  93 SE8       30.04S
JEFFERSON CITY MOCLDY    75  74  96 E6        30.03S
ROLLA          CLOUDY    76  73  91 SE7       30.06F
OSAGE BEACH    PTCLDY    78  75  90 SE5       30.05S
SPRINGFIELD    CLEAR     80  70  71 S13       30.05R
BRANSON        PTCLDY    77  72  83 S5        30.10R
JOPLIN         CLEAR     81  71  71 S13       30.00S
WEST PLAINS    CLOUDY    79  71  76 S6        30.12S

$$

IAZ060-094-KSZ022-034>040-054-083-096-NEZ052-066-093-240200-
...KANSAS...SOUTHEAST NEBRASKA AND IOWA...

CITY           SKY/WX    TMP DP  RH WIND       PRES   REMARKS
TOPEKA         MOCLDY    83  71  67 S16       29.91R
MANHATTAN      CLEAR     84  72  67 S15G22    29.85R
EMPORIA        CLEAR     80  72  76 S13       29.92R
CHANUTE        PTCLDY    81  71  71 S10       29.94F
WICHITA        CLOUDY    86  71  60 S22G30    29.87F HX  91
OMAHA          MOCLDY    81  74  79 SE13      29.81R THUNDER
LINCOLN        PTCLDY    85  72  65 S17       29.78F HX  91
FALLS CITY     CLOUDY    82  72  71 S14       29.86F
LAMONI         PTCLDY    76  73  91 S15G24    29.91F
DES MOINES     PTCLDY    78  72  81 S15       29.88F

$$





USA.gov is the U.S. government's official web portal to all federal, state and local government web resources and services.